This demonstration page uses our WeatherBlox Daily Observations layout. Learn more.

Left ArrowRight Arrow

44.89941, -97.11507

Hourly Observations for March 6, 2017

Temp ( °F °C ) Dew Point ( °F °C ) Humidity (%) Winds ( mph kmh ) Pressure ( in mb ) Visibility ( mi km ) Precip ( " mm )
12:53 am 00:53 Clear 48 8.9 46 7.8 93 93 SSE 15 24 29.45 997 10 16 0.00 0.00
1:30 am 01:30 Mostly Clear 48 8.9 46 7.8 93 93 SSE 16 26 29.47 998 10 16 0.00 0.00
1:53 am 01:53 Mostly Clear 48 8.9 46 7.8 93 93 SSE 16 26 29.42 996 10 16 0.00 0.00
2:23 am 02:23 Mostly Cloudy 48 8.9 47 8.3 96 96 SSE 18 30 29.44 997 9 14 0.00 0.00
2:53 am 02:53 Cloudy 49 9.4 47 8.3 93 93 SSE 17 28 29.38 995 9 14 0.00 0.00
3:13 am 03:13 Cloudy 49 9.4 48 8.9 97 97 SSE 18 30 29.38 995 9 14 0.00 0.00
3:29 am 03:29 Cloudy 49 9.4 48 8.9 97 97 SSE 17 28 29.38 995 9 14 0.00 0.00
3:42 am 03:42 Cloudy 49 9.4 48 8.9 97 97 SSE 14 22 29.38 995 10 16 0.00 0.00
3:53 am 03:53 Cloudy 49 9.4 48 8.9 97 97 SSE 12 19 29.33 993 10 16 0.00 0.00
4:53 am 04:53 Cloudy 50 10 49 9.4 96 96 SSE 16 26 29.28 992 10 16 0.00 0.00
5:13 am 05:13 Cloudy 51 10.6 49 9.4 92 92 SSE 14 22 29.26 991 10 16 0.00 0.00
5:53 am 05:53 Cloudy 51 10.6 49 9.4 92 92 SSE 13 20 29.26 991 10 16 0.00 0.00
6:36 am 06:36 Cloudy 51 10.6 49 9.4 92 92 SSE 18 30 29.21 989 10 16 0.00 0.00
6:53 am 06:53 Cloudy 51 10.6 49 9.4 92 92 SSE 18 30 29.21 989 10 16 0.00 0.00
7:53 am 07:53 Mostly Cloudy 52 11.1 49 9.4 89 89 SSE 18 30 29.17 988 10 16 0.00 0.00
8:53 am 08:53 Mostly Cloudy 53 11.7 50 10 89 89 S 21 33 29.15 987 10 16 0.00 0.00
9:05 am 09:05 Partly Cloudy 54 12.2 50 10 87 87 S 23 37 29.09 985 10 16 0.00 0.00
9:53 am 09:53 Mostly Sunny 58 14.4 50 10 75 75 S 22 35 29.11 986 10 16 0.00 0.00
10:53 am 10:53 Sunny 60 15.6 45 7.2 58 58 S 26 43 29.08 985 10 16 0.00 0.00
11:53 am 11:53 Sunny with Light Rain 63 17.2 41 5 45 45 SSW 30 48 29.07 985 10 16 0.00 0.03
12:53 pm 12:53 Sunny with Light Rain 64 17.8 39 3.9 40 40 SW 21 33 29.08 985 10 16 0.00 0.03
1:53 pm 13:53 Mostly Cloudy 62 16.7 40 4.4 44 44 WSW 23 37 29.10 985 7 11 0.00 0.03
2:53 pm 14:53 Mostly Sunny 56 13.3 40 4.4 55 55 W 28 44 29.16 987 10 16 0.00 0.00
3:53 pm 15:53 Mostly Cloudy 46 7.8 36 2.2 68 68 W 17 28 29.24 990 10 16 0.00 0.00
4:41 pm 16:41 Cloudy 40 4.4 33 0.6 77 77 W 23 37 29.32 993 8 13 0.00 0.00
4:53 pm 16:53 Cloudy 39 3.9 32 0 76 76 WNW 21 33 29.28 992 10 16 0.00 0.00
5:53 pm 17:53 Mostly Cloudy 36 2.2 29 -1.7 76 76 W 22 35 29.32 993 10 16 0.00 0.00
6:10 pm 18:10 Cloudy 35 1.7 26 -3.3 70 70 W 21 33 29.35 994 10 16 0.00 0.00
6:53 pm 18:53 Mostly Clear 32 0 24 -4.4 73 73 WNW 21 33 29.31 993 10 16 0.00 0.00
7:08 pm 19:08 Mostly Cloudy 31 -0.6 23 -5 72 72 WNW 23 37 29.38 995 10 16 0.00 0.00
7:53 pm 19:53 Cloudy 29 -1.7 21 -6.1 72 72 WNW 28 44 29.32 993 10 16 0.00 0.00
8:53 pm 20:53 Cloudy 28 -2.2 20 -6.7 72 72 NW 24 39 29.34 994 10 16 0.00 0.00
9:53 pm 21:53 Cloudy 28 -2.2 19 -7.2 69 69 WNW 23 37 29.40 996 10 16 0.00 0.00
10:53 pm 22:53 Windy with Snow Likely 26 -3.3 18 -7.8 71 71 WNW 24 39 29.40 996 9 14 0.00 0.03
11:32 pm 23:32 Cloudy with Light Snow 25 -3.9 20 -6.7 81 81 WNW 16 26 29.53 1000 2 3 0.00 0.03
11:40 pm 23:40 Windy with Snow Likely 25 -3.9 21 -6.1 85 85 WNW 22 35 29.53 1000 1 2 0.00 0.03
11:53 pm 23:53 Cloudy with Light Snow 25 -3.9 22 -5.6 88 88 W 16 26 29.43 997 1 1 0.00 0.03

Powered by AerisWeather